Regional Weather Roundup
Issued by NWS Midland/Odessa, TX

Home | Current Version | Previous Version | Text Only | Print | Product List | Glossary On
Versions: 1 2 3 4 5 6 7 8 9 10 11 12 13 14 15 16 17 18 19 20 21 22 23 24 25 26 27 28 29 30 31 32 33 34 35 36 37 38 39 40 41 42 43 44 45 46 47 48 49 50
000
ASUS44 KMAF 190710
RWRMAF
MIDLAND AREA WEATHER ROUNDUP
NATIONAL WEATHER SERVICE MIDLAND TX
200 AM CDT SAT APR 19 2014

...IN SOUTHWEST TEXAS AND SOUTHEAST NEW MEXICO...

CITY           SKY/WX    TMP DP  RH WIND       PRES   REMARKS
ALPINE         MOCLDY    60  48  62 S14       30.15F
ANDREWS        FAIR      58  44  58 SE6       30.09S
ARTESIA        CLOUDY    64  45  48 SE18G24   30.06F
BIG SPRING     MOCLDY    63  42  47 E14       30.11F
CARLSBAD       CLOUDY    65  47  52 S13       30.05S
DRYDEN           N/A     66  51  58 E15G22    30.06S
FORT STOCKTON  PTCLDY    62  49  62 SE21G31   30.05F
GUAD PASS      RAIN      56  49  77 W14       30.18R
HOBBS          CLOUDY    57  45  62 SE7       30.10S
MARFA          MOCLDY    55  46  71 SE6       30.14F
MIDLAND AIRPK  CLOUDY    62  45  54 SE8       30.08F
MIDLAND INTL   CLOUDY    61  46  57 SE9       30.07F
ODESSA         CLOUDY    60  45  57 SE8       30.08F
PECOS          MOCLDY    64  49  57 E15       30.03S
PRESIDIO       FAIR      68  50  51 NE15      30.00F
SEMINOLE       MOCLDY    59  44  56 SE9       30.10S
SNYDER         MOCLDY    59  48  66 SE12      30.12S
WINK           MOCLDY    65  48  54 SE14      30.04S
$$
...OTHER STATIONS IN TEXAS...

CITY           SKY/WX    TMP DP  RH WIND       PRES   REMARKS
ABILENE        MOCLDY    59  48  67 SE12      30.13F
AMARILLO       PTCLDY    56  43  61 S24G31    30.08S
AUSTIN         PTCLDY    52  51  97 CALM      30.13F
BROWNSVILLE    CLOUDY    62  61  96 CALM      30.10F
CORPUS CHRISTI MOCLDY    63  59  87 E6        30.12F
DALLAS FTW     MOCLDY    60  46  59 S5        30.13S
DEL RIO        MOCLDY    70  53  54 SE9G20    30.06S
EL PASO        CLOUDY    68  44  42 E10       30.00F
HOUSTON INT    PTCLDY    60  55  83 CALM      30.13F
LUBBOCK        PTCLDY    54  42  64 SE9       30.10S
SAN ANGELO     MOCLDY    64  50  60 SE12      30.10F
SAN ANTONIO    MOCLDY    62  55  77 SE3       30.13F
WACO           PTCLDY    51  50  96 VRB5      30.14S
WICHITA FALLS  NOT AVBL
$$
...OTHER LOCATIONS IN NEW MEXICO...

CITY           SKY/WX    TMP DP  RH WIND       PRES   REMARKS
ALAMAGORDO     MOCLDY    63  45  51 CALM      30.05S
ALBUQUERQUE    CLOUDY    57  45  64 CALM      30.13F
CANNON AFB     PTCLDY    51  43  74 S7        30.11S
CLOVIS         CLEAR     50  39  66 S9        30.14S
HOLLOMAN AFB   MOCLDY    61  51  69 W8        30.05R
ROSWELL        CLOUDY    61  44  53 SE6       30.07S
RUIDOSO        CLOUDY    50  39  66 S3        30.20F
SANTA FE       LGT RAIN  55  36  48 W10G20    30.17R
TRUTH OR CONSE MOCLDY    60  29  30 N5        30.05F
TUCUMCARI      MOCLDY    60  44  55 S22G31    30.03S
$$



USA.gov is the U.S. government's official web portal to all federal, state and local government web resources and services.